Home > Time Zones > World Clock > Weather > U.S.A. > Bend > Past weeks

Flag Weather past 2 weeks in Bend, Oregon, U.S.A.

Now
39 °F

Passing clouds.


Feels Like: 36 °F
Forecast: 32 / 43 °F
Wind: 5 mph from Southwest

Location: Roberts Field Airport

Current Time: Nov 22, 2014 at 6:42:49 AM

Latest Report: Nov 22, 2014 at 5:56 AM


Visibility: 10 mi

Pressure: 29.76 "Hg

Humidity: 76%

Dew point: 32 °F

Location of BendLocation

Historic Weather in Bend — Graph

°F

Bend temperature yesterday

Maximum temperature yesterday: 45 °F (at 4:56 PM)
Minimum temperature yesterday: 30 °F (at 4:56 AM)
Average temperature yesterday: 40 °F

Past Weeks' High & Low Weather Summary

 TemperatureHumidityPressure
High70 °F (Nov 8, 2:56 PM)100% (Nov 15, 4:56 PM)30.76 "Hg (Nov 15, 4:56 PM)
Low-18 °F (Nov 16, 2:56 AM)31% (Nov 8, 2:56 PM)29.55 "Hg (Nov 21, 8:56 PM)
Average24 °F78%30.22 "Hg
* Reported Nov 7 4:56 AM — Nov 22 4:56 AM, Bend, Weather by CustomWeather, © 2014

Note: Actual official high and low records may vary slightly from our data, if they occured in-between our weather recording intervals... More about our weather records

Advertising

Bend weather history for previous 24 hours

 ConditionsComfort  
Time TempWeatherWind HumidityBarometerVisibility
4:56 AM
Nov 22
40 °FPassing clouds.12 mph80%29.72 "Hg10 mi
3:56 AM40 °FLight rain. Mostly cloudy.16 mph86%29.73 "Hg10 mi
2:56 AM37 °FPassing clouds.6 mph96%29.70 "Hg10 mi
1:56 AM40 °FPassing clouds.9 mph93%29.69 "Hg10 mi
12:56 AM42 °FMostly cloudy.7 mph92%29.66 "Hg10 mi
11:56 PM
Nov 21
43 °FRain. Fog.9 mph97%29.65 "Hg4 mi
10:56 PM45 °FRain. Fog.10 mph90%29.57 "Hg4 mi
9:56 PM45 °FLight rain. Mostly cloudy.20 mph90%29.56 "Hg9 mi
8:56 PM45 °FLight rain. Overcast.16 mph90%29.55 "Hg10 mi
7:56 PM44 °FLight rain. Passing clouds.21 mph85%29.58 "Hg7 mi
6:56 PM45 °FPassing clouds.21 mph76%29.56 "Hg10 mi
5:56 PM45 °FClear.20 mph74%29.60 "Hg10 mi
4:56 PM45 °FPassing clouds.26 mph74%29.65 "Hg10 mi
3:56 PM44 °FMostly cloudy.22 mph73%29.67 "Hg10 mi
2:56 PM42 °FLight rain. Overcast.10 mph76%29.71 "Hg10 mi
1:56 PM42 °FLight rain. Overcast.15 mph76%29.74 "Hg10 mi
12:56 PM42 °FMostly cloudy.10 mph73%29.79 "Hg10 mi
11:56 AM42 °FOvercast.12 mph71%29.84 "Hg10 mi
10:56 AM40 °FLight rain. Overcast.9 mph80%29.88 "Hg10 mi
9:56 AM40 °FOvercast.9 mph77%29.90 "Hg10 mi
8:56 AM40 °FSunny.10 mph77%29.90 "Hg10 mi
7:56 AM36 °FSunny.10 mph82%29.92 "Hg10 mi
6:56 AM36 °FClear.8 mph85%29.95 "Hg10 mi
Weather by CustomWeather, © 2014

See weather overviewHow to use our weather pages